• In Lithuania
  • List of Countries
  • For 7 days
  • Water Temperature
  • Satellite Maps
  • Weather Map
  • Weather Widgets
  • user-avatar
    Login

    Hourly Weather Bujumbura

    Today, 22 October, Sunday

    Time Temperature Precipitation Wind Pressure Humidity
    00:00 +25°C° 0 mm 1 mps 692 mmHg 85%
    01:00 +24°C° 0 mm 1 mps 692 mmHg 85%
    02:00 +24°C° 0 mm 1 mps 691 mmHg 85%
    03:00 +24°C° 0 mm 1 mps 692 mmHg 85%
    04:00 +23°C° 0 mm 1 mps 692 mmHg 85%
    05:00 +23°C° 0 mm 1 mps 692 mmHg 85%
    06:00 +25°C° 0 mm 1 mps 692 mmHg 78%
    07:00 +27°C° 0 mm 1 mps 693 mmHg 72%
    08:00 +28°C° 0 mm 1 mps 694 mmHg 65%
    09:00 +30°C° 0 mm 2 mps 693 mmHg 59%
    10:00 +31°C° 0 mm 2 mps 693 mmHg 54%
    11:00 +32°C° 0 mm 2 mps 693 mmHg 49%
    12:00 +34°C° 0 mm 2 mps 692 mmHg 48%
    13:00 +34°C° 0 mm 2 mps 692 mmHg 47%
    14:00 +34°C° 0 mm 2 mps 691 mmHg 46%
    15:00 +32°C° 0.1 mm 2 mps 690 mmHg 48%
    16:00 +32°C° 0.1 mm 1 mps 690 mmHg 51%
    17:00 +31°C° 0.1 mm 1 mps 690 mmHg 53%
    18:00 +29°C° 0 mm 1 mps 690 mmHg 57%
    19:00 +27°C° 0 mm 1 mps 690 mmHg 62%
    20:00 +26°C° 0 mm 1 mps 691 mmHg 67%
    21:00 +25°C° 0 mm 1 mps 691 mmHg 67%
    22:00 +25°C° 0 mm 1 mps 691 mmHg 67%
    23:00 +24°C° 0 mm 1 mps 691 mmHg 67%

    Tomorrow, 23 October, Monday

    Time Temperature Precipitation Wind Pressure Humidity
    00:00 +24°C° 0 mm 1 mps 691 mmHg 67%
    01:00 +24°C° 0 mm 1 mps 691 mmHg 66%
    02:00 +23°C° 0 mm 1 mps 690 mmHg 65%
    03:00 +23°C° 0 mm 1 mps 690 mmHg 65%
    04:00 +23°C° 0 mm 1 mps 691 mmHg 65%
    05:00 +23°C° 0 mm 1 mps 691 mmHg 65%
    06:00 +25°C° 0 mm 1 mps 691 mmHg 58%
    07:00 +27°C° 0 mm 2 mps 692 mmHg 52%
    08:00 +29°C° 0 mm 2 mps 693 mmHg 46%
    09:00 +30°C° 0 mm 2 mps 693 mmHg 42%
    10:00 +32°C° 0 mm 2 mps 693 mmHg 37%
    11:00 +35°C° 0 mm 2 mps 693 mmHg 33%
    12:00 +36°C° 0 mm 2 mps 692 mmHg 32%
    13:00 +36°C° 0 mm 2 mps 691 mmHg 31%
    14:00 +36°C° 0 mm 2 mps 690 mmHg 30%
    15:00 +35°C° 0 mm 2 mps 689 mmHg 33%
    16:00 +33°C° 0 mm 1 mps 689 mmHg 37%
    17:00 +32°C° 0 mm 1 mps 689 mmHg 40%
    18:00 +30°C° 0 mm 1 mps 689 mmHg 43%
    19:00 +28°C° 0 mm 1 mps 690 mmHg 47%
    20:00 +26°C° 0 mm 1 mps 691 mmHg 51%
    21:00 +26°C° 0 mm 1 mps 691 mmHg 51%
    22:00 +26°C° 0 mm 1 mps 691 mmHg 51%
    23:00 +26°C° 0 mm 1 mps 692 mmHg 52%

    Day after tomorrow, 24 October, Tuesday

    Time Temperature Precipitation Wind Pressure Humidity
    00:00 +25°C° 0 mm 1 mps 691 mmHg 54%
    01:00 +25°C° 0 mm 1 mps 690 mmHg 56%
    02:00 +24°C° 0 mm 1 mps 690 mmHg 58%
    03:00 +24°C° 0 mm 1 mps 690 mmHg 58%
    04:00 +23°C° 0 mm 1 mps 690 mmHg 59%
    05:00 +23°C° 0 mm 1 mps 690 mmHg 60%
    06:00 +25°C° 0 mm 1 mps 691 mmHg 55%
    07:00 +27°C° 0 mm 1 mps 692 mmHg 50%
    08:00 +30°C° 0 mm 1 mps 692 mmHg 45%
    09:00 +31°C° 0 mm 1 mps 692 mmHg 42%
    10:00 +34°C° 0 mm 2 mps 692 mmHg 40%
    11:00 +36°C° 0 mm 2 mps 692 mmHg 37%
    12:00 +36°C° 0 mm 2 mps 691 mmHg 38%
    13:00 +35°C° 0 mm 2 mps 690 mmHg 38%
    14:00 +35°C° 0 mm 2 mps 689 mmHg 39%
    15:00 +34°C° 0.1 mm 2 mps 689 mmHg 42%
    16:00 +32°C° 0.1 mm 2 mps 689 mmHg 46%
    17:00 +31°C° 0.1 mm 1 mps 689 mmHg 50%
    18:00 +29°C° 0.3 mm 1 mps 689 mmHg 54%
    19:00 +28°C° 0.3 mm 1 mps 690 mmHg 59%
    20:00 +24°C° 0.3 mm 0 mps 691 mmHg 64%
    21:00 +26°C° 0.2 mm 1 mps 691 mmHg 65%
    22:00 +25°C° 0.2 mm 1 mps 691 mmHg 67%
    23:00 +25°C° 0.2 mm 1 mps 692 mmHg 68%

    25 October, Wednesday

    Time Temperature Precipitation Wind Pressure Humidity
    00:00 +25°C° 0.2 mm 1 mps 691 mmHg 69%
    01:00 +25°C° 0.2 mm 1 mps 691 mmHg 71%
    02:00 +25°C° 0.2 mm 1 mps 690 mmHg 72%
    03:00 +24°C° 0 mm 1 mps 690 mmHg 73%
    04:00 +24°C° 0 mm 1 mps 691 mmHg 74%
    05:00 +24°C° 0 mm 1 mps 691 mmHg 75%
    06:00 +25°C° 0 mm 1 mps 692 mmHg 71%
    07:00 +27°C° 0 mm 1 mps 692 mmHg 66%
    08:00 +28°C° 0 mm 1 mps 693 mmHg 61%
    09:00 +30°C° 0 mm 1 mps 693 mmHg 56%
    10:00 +32°C° 0 mm 2 mps 692 mmHg 52%
    11:00 +35°C° 0 mm 2 mps 692 mmHg 47%
    12:00 +34°C° 0.4 mm 2 mps 691 mmHg 48%
    13:00 +34°C° 0.4 mm 2 mps 690 mmHg 50%
    14:00 +34°C° 0.4 mm 2 mps 689 mmHg 51%
    15:00 +32°C° 0.5 mm 2 mps 689 mmHg 55%
    16:00 +31°C° 0.5 mm 1 mps 689 mmHg 58%
    17:00 +30°C° 0.5 mm 1 mps 689 mmHg 62%
    18:00 +29°C° 0.9 mm 1 mps 690 mmHg 67%
    19:00 +28°C° 0.9 mm 1 mps 691 mmHg 71%
    20:00 +24°C° 0.9 mm 0 mps 691 mmHg 76%
    21:00 +26°C° 0.9 mm 1 mps 691 mmHg 77%
    22:00 +26°C° 0.9 mm 1 mps 691 mmHg 79%
    23:00 +25°C° 0.9 mm 1 mps 691 mmHg 80%

    26 October, Thursday

    Time Temperature Precipitation Wind Pressure Humidity
    00:00 +25°C° 0.5 mm 1 mps 691 mmHg 81%
    01:00 +25°C° 0.5 mm 1 mps 690 mmHg 81%
    02:00 +24°C° 0.5 mm 1 mps 690 mmHg 81%
    03:00 +24°C° 0.5 mm 1 mps 690 mmHg 81%
    04:00 +24°C° 0.5 mm 1 mps 691 mmHg 81%
    05:00 +24°C° 0.5 mm 1 mps 691 mmHg 82%
    06:00 +25°C° 0.6 mm 1 mps 692 mmHg 78%
    07:00 +26°C° 0.6 mm 1 mps 692 mmHg 75%
    08:00 +27°C° 0.6 mm 1 mps 693 mmHg 71%
    09:00 +29°C° 0.5 mm 1 mps 693 mmHg 67%
    10:00 +31°C° 0.5 mm 1 mps 692 mmHg 62%
    11:00 +32°C° 0.5 mm 1 mps 692 mmHg 57%
    12:00 +32°C° 1 mm 2 mps 691 mmHg 58%
    13:00 +32°C° 1 mm 2 mps 690 mmHg 59%
    14:00 +32°C° 1 mm 2 mps 689 mmHg 60%
    15:00 +31°C° 2 mm 1 mps 689 mmHg 65%
    16:00 +30°C° 2 mm 1 mps 689 mmHg 70%
    17:00 +29°C° 2 mm 1 mps 689 mmHg 75%
    18:00 +28°C° 1.4 mm 1 mps 690 mmHg 78%
    19:00 +25°C° 1.4 mm 0 mps 690 mmHg 81%
    20:00 +24°C° 1.4 mm 0 mps 691 mmHg 84%
    21:00 +24°C° 0.3 mm 0 mps 691 mmHg 84%
    22:00 +26°C° 0.3 mm 1 mps 691 mmHg 85%
    23:00 +25°C° 0.3 mm 1 mps 691 mmHg 86%

    27 October, Friday

    Time Temperature Precipitation Wind Pressure Humidity
    00:00 +25°C° 0.3 mm 1 mps 690 mmHg 86%
    01:00 +25°C° 0.3 mm 1 mps 690 mmHg 87%
    02:00 +25°C° 0.3 mm 1 mps 689 mmHg 87%
    03:00 +25°C° 0.3 mm 1 mps 690 mmHg 87%
    04:00 +24°C° 0.3 mm 1 mps 690 mmHg 87%
    05:00 +24°C° 0.3 mm 1 mps 690 mmHg 87%
    06:00 +25°C° 0.2 mm 1 mps 691 mmHg 83%
    07:00 +26°C° 0.2 mm 1 mps 691 mmHg 78%
    08:00 +27°C° 0.2 mm 1 mps 692 mmHg 74%
    09:00 +29°C° 0.1 mm 1 mps 692 mmHg 67%
    10:00 +31°C° 0.1 mm 1 mps 691 mmHg 60%
    11:00 +33°C° 0.1 mm 1 mps 691 mmHg 52%
    12:00 +32°C° 0.5 mm 1 mps 690 mmHg 54%
    13:00 +32°C° 0.5 mm 1 mps 690 mmHg 56%
    14:00 +32°C° 0.5 mm 2 mps 689 mmHg 58%
    15:00 +30°C° 1.3 mm 1 mps 689 mmHg 63%
    16:00 +29°C° 1.3 mm 1 mps 689 mmHg 69%
    17:00 +28°C° 1.3 mm 1 mps 689 mmHg 74%
    18:00 +27°C° 3.5 mm 1 mps 689 mmHg 79%
    19:00 +26°C° 3.5 mm 1 mps 690 mmHg 83%
    20:00 +23°C° 3.5 mm 0 mps 690 mmHg 87%
    21:00 +25°C° 1.9 mm 1 mps 690 mmHg 87%
    22:00 +25°C° 1.9 mm 1 mps 690 mmHg 88%
    23:00 +25°C° 1.9 mm 1 mps 690 mmHg 89%
    Show more